Location: Gorlice
(49.6633°N, 21.1693°E)
Time: 11:31:35
(UTC+02:00)

ISS - Visible Passes

Search period start: 22 September 2018 00:00
Search period end: 02 October 2018 00:00
Orbit: 403 x 408 km, 51.6° (Epoch: 22 September)

Date Brightness Start Highest point End Pass type
(mag) Time Alt. Az. Time Alt. Az. Time Alt. Az.
22 Sep -1.9 20:27:35 10° SSW 20:28:50 19° SSW 20:28:50 19° SSW visible
23 Sep -2.3 19:36:19 10° S 19:38:49 20° SE 19:39:35 19° ESE visible
23 Sep -1.1 21:11:40 10° WSW 21:12:17 15° WSW 21:12:17 15° WSW visible
24 Sep -3.6 20:19:51 10° SW 20:22:49 54° S 20:22:49 54° S visible
25 Sep -3.1 19:28:11 10° SW 19:31:15 37° SSE 19:33:11 19° E visible
25 Sep -1.7 21:04:21 10° W 21:05:53 25° W 21:05:53 25° W visible
26 Sep -3.9 20:12:23 10° WSW 20:15:41 90° NNW 20:16:08 65° ENE visible
27 Sep -3.8 19:20:28 10° WSW 19:23:45 66° SSE 19:26:17 16° ENE visible
27 Sep -1.9 20:57:03 10° W 20:58:57 30° WNW 20:58:57 30° WNW visible
28 Sep -3.6 20:05:01 10° W 20:08:19 67° N 20:09:02 48° NE visible
29 Sep -3.8 19:13:00 10° WSW 19:16:18 81° NNW 19:19:03 14° ENE visible
29 Sep -2.0 20:49:42 10° WNW 20:51:43 33° WNW 20:51:43 33° WNW visible
30 Sep -3.5 19:57:39 10° W 20:00:56 58° N 20:01:42 43° NE visible
30 Sep -0.3 21:34:16 10° WNW 21:34:21 11° WNW 21:34:21 11° WNW visible
01 Oct -3.5 19:05:34 10° W 19:08:52 63° N 19:11:39 14° ENE visible
01 Oct -2.2 20:42:15 10° WNW 20:44:18 35° WNW 20:44:18 35° WNW visible
